Elkins, WV

1:18 PM EST on November 22, 2019 (GMT -0500)
Elkins-Randolph County

Weather History for KEKN - September, 2019

Change the Weather History Date:

Saturday, September 14, 2019

  Actual Average Record
Temperature  
Mean Temperature 71 °F 63 °F  
Max Temperature 84 °F 74 °F 89 °F (1998)
Min Temperature 57 °F 52 °F 31 °F (1953)
Degree Days  
Heating Degree Days 0 3  
Month to date heating degree days 0 31  
Since 1 July heating degree days 7 61  
Cooling Degree Days 6 1  
Month to date cooling degree days 85 32  
Year to date cooling degree days 756 458  
Growing Degree Days 21 (Base 50)    
Moisture  
Dew Point 61 °F    
Average Humidity 69    
Maximum Humidity 90    
Minimum Humidity 43    
Precipitation  
Precipitation T in 0.13 in 1.87 in (1938)
Month to date precipitation T 1.70  
Year to date precipitation 37.71 34.51  
Snow  
Snow 0.00 in 0.00 in 0.00 in (2017)
Month to date snowfall 0.0 0.0  
Since 1 September snowfall 0.0 0.0  
Snow Depth 0.00 in    
Sea Level Pressure  
Sea Level Pressure 30.22 in    
Wind  
Wind Speed 6 mph ()    
Max Wind Speed 15 mph    
Max Gust Speed 19 mph    
Visibility 10.0 miles    
Events      
T = Trace of Precipitation, MM = Missing Value Source: Averaged Metar Reports

Daily Weather History Graph

Daily Weather History Graph

Search for Another Location

Airport or City:

Astronomy

Sep. 14, 2019 Rise Set
Actual Time 6:59 AM EDT 7:29 PM EDT
Civil Twilight 6:32 AM EDT 7:56 PM EDT
Nautical Twilight 6:01 AM EDT 8:27 PM EDT
Astronomical Twilight 5:29 AM EDT 9:00 PM EDT
Moon 8:09 PM EDT (9/14) 7:12 AM EDT (9/14)
Length of Visible Light 13h 23m
Length of Day
12h 29m
Full, 100% of the Moon is Illuminated
Sep 14
Full
Sep 21
Last Quarter
Sep 28
New
Oct 5
First Quarter
Oct 13
Full

Hourly Weather History & Observations

Time (EDT) Temp. Heat Index Dew Point Humidity Pressure Visibility Wind Dir Wind Speed Gust Speed Precip Events Conditions
12:51 AM 70.0 °F - 60.1 °F 71% 30.23 in 10.0 mi SSE 8.1 mph - N/A   Clear
1:51 AM 69.1 °F - 60.1 °F 73% 30.22 in 10.0 mi SE 6.9 mph - N/A   Clear
2:51 AM 69.1 °F - 60.1 °F 73% 30.21 in 10.0 mi SSE 6.9 mph - N/A   Partly Cloudy
3:51 AM 66.9 °F - 60.1 °F 79% 30.20 in 10.0 mi SSE 4.6 mph - N/A   Partly Cloudy
4:51 AM 69.1 °F - 61.0 °F 75% 30.20 in 10.0 mi SE 8.1 mph - N/A   Mostly Cloudy
5:51 AM 69.1 °F - 61.0 °F 75% 30.21 in 10.0 mi SE 8.1 mph - N/A   Overcast
6:51 AM 68.0 °F - 61.0 °F 78% 30.22 in 10.0 mi SE 6.9 mph - N/A   Overcast
7:51 AM 70.0 °F - 61.0 °F 73% 30.24 in 10.0 mi SSE 6.9 mph - N/A   Overcast
8:51 AM 71.1 °F - 62.1 °F 73% 30.25 in 10.0 mi SSE 6.9 mph - N/A   Overcast
9:51 AM 73.0 °F - 63.0 °F 71% 30.26 in 10.0 mi SE 8.1 mph - N/A   Overcast
10:51 AM 77.0 °F - 64.0 °F 64% 30.25 in 10.0 mi South 6.9 mph - N/A   Overcast
11:51 AM 79.0 °F - 64.9 °F 62% 30.23 in 10.0 mi Variable 3.5 mph - N/A   Overcast
12:51 PM 82.9 °F 85.0 °F 66.0 °F 56% 30.21 in 10.0 mi West 9.2 mph - N/A   Scattered Clouds
1:51 PM 84.0 °F 85.8 °F 64.9 °F 53% 30.19 in 10.0 mi Variable 4.6 mph - N/A   Partly Cloudy
2:51 PM 78.1 °F - 66.0 °F 66% 30.19 in 10.0 mi SSW 8.1 mph - 0.00 in   Partly Cloudy
3:51 PM 80.1 °F 81.9 °F 64.9 °F 60% 30.18 in 10.0 mi WNW 9.2 mph - N/A   Mostly Cloudy
4:51 PM 82.9 °F 84.0 °F 63.0 °F 51% 30.17 in 10.0 mi West 11.5 mph - N/A   Partly Cloudy
5:51 PM 82.0 °F 82.0 °F 57.9 °F 44% 30.18 in 10.0 mi WNW 9.2 mph - N/A   Clear
6:51 PM 78.1 °F - 57.9 °F 50% 30.19 in 10.0 mi West 3.5 mph - N/A   Clear
7:51 PM 69.1 °F - 60.1 °F 73% 30.22 in 10.0 mi Calm Calm - N/A   Partly Cloudy
8:51 PM 66.9 °F - 60.1 °F 79% 30.24 in 10.0 mi East 3.5 mph - N/A   Clear
9:51 PM 63.0 °F - 57.9 °F 84% 30.25 in 10.0 mi Calm Calm - N/A   Clear
10:51 PM 59.0 °F - 55.9 °F 90% 30.26 in 10.0 mi Calm Calm - N/A   Clear
11:51 PM 59.0 °F - 55.0 °F 87% 30.25 in 10.0 mi Calm Calm - N/A   Clear